Lexington Weather

Lexington, Massachusetts, USA

77°F
8/3/2020 10:42pm 
  • Lexington Conditions: Clear
  • Temperature: 76.8°F / 24.9°CColder 2.0°F than last hour.
  • Dew Point: 65.5°FDecreased 0.2°Fsince last hour.
  • Relative Humidity: 68%Increased 4.0% since last hour.
  • Wind: Calm, 10-min avg: Calm, gust: None
  • Barometer: 30.01 inRising 0.02  inHg/hr Rising Slowly
  • Visibility: 10 miles
  • Rain Today: 0.00 in
  •   
Southeast Middlesex County - Tropical Storm Warning - Tropical Cyclone Statement
 - SEE ALL NEARBY ALERTS -

Regional Weather Roundup
for Boston / Norton, MA

        
000
ASUS41 KBOX 291204
RWRBOX

REGIONAL WEATHER ROUNDUP
NATIONAL WEATHER SERVICE BOSTON/NORTON MA
800 AM EDT WED JUL 29 2020

NOTE:  "FAIR" INDICATES FEW OR NO CLOUDS BELOW 12,000 FEET WITH NO 
SIGNIFICANT WEATHER AND/OR OBSTRUCTIONS TO VISIBILITY.

MAZALL-291300-
EASTERN MASSACHUSETTS
  
CITY           SKY/WX    TMP DP  RH WIND       PRES   REMARKS
BOSTON         PTSUNNY   75  57  53 W10G17    29.91R                  
6HR MIN TEMP:  73; 6HR MAX TEMP:  77;                                

BEVERLY        MOSUNNY   73  60  63 VRB5      29.90R                  
LAWRENCE       MOSUNNY   74  61  63 W5        29.93R                  
BEDFORD        MOSUNNY   71  60  68 W3        29.91R                  
BLUE HILL      NOT AVBL                                               
NORWOOD        MOSUNNY   76  59  55 NW7       29.92R                  
MARSHFIELD     MOSUNNY   77  61  57 VRB3      29.90R                  
PLYMOUTH       PTSUNNY   75  61  61 NW5       29.92R                  
TAUNTON        PTSUNNY   73  65  75 CALM      29.92R                  
NEW BEDFORD    PTSUNNY   74  62  66 CALM      29.92R                  
$$

MAZALL-291300-
CAPE COD AND THE ISLANDS
  
CITY           SKY/WX    TMP DP  RH WIND       PRES   REMARKS
FALMOUTH       SUNNY     75  61  60 NW6       29.91R                  
HYANNIS        PTSUNNY   80  60  50 NW5       29.90R                  
CHATHAM        PTSUNNY   79  63  57 CALM      29.92R                  
PROVINCETOWN   MOSUNNY   74  64  71 W5        29.91R                  
NANTUCKET      MOSUNNY   80  64  58 NW5       29.91R                  
MARTHAS VNYRD  PTSUNNY   77  65  66 CALM      29.92R                  
$$
 
MAZALL-291300-
CENTRAL AND WESTERN MASSACHUSETTS
  
CITY           SKY/WX    TMP DP  RH WIND       PRES   REMARKS
WORCESTER      SUNNY     74  56  53 NW10      29.96R                  
6HR MIN TEMP:  67; 6HR MAX TEMP:  74;                                

FITCHBURG      SUNNY     75  57  53 NW6       29.94R                  
ORANGE         SUNNY     66  60  81 CALM      29.96R                  
SPRINGFIELD    MOSUNNY   70  61  75 CALM      29.93R                  
WESTFIELD      PTSUNNY   69  61  75 CALM      29.94R                  
NORTH ADAMS    SUNNY     65  59  81 CALM      29.96S                  
PITTSFIELD     SUNNY     65  58  78 CALM      29.96S                  
$$
 
RIZALL-291300-
RHODE ISLAND
  
CITY           SKY/WX    TMP DP  RH WIND       PRES   REMARKS
PROVIDENCE     PTSUNNY   73  63  70 W3        29.93R                  
6HR MIN TEMP:  70; 6HR MAX TEMP:  76;                                

NEWPORT        CLOUDY    75  65  70 CALM      29.93R                  
BLOCK ISLAND   CLOUDY    73  64  73 CALM      29.95R                  
SMITHFIELD     MOSUNNY   74  61  63 W5        29.95R                  
WESTERLY       NOT AVBL                                               
$$
 
CTZALL-291300-
CONNECTICUT
  
CITY           SKY/WX    TMP DP  RH WIND       PRES   REMARKS
BRADLEY INTL   PTSUNNY   72  60  66 CALM      29.93R                  
6HR MIN TEMP:  62; 6HR MAX TEMP:  72;                                

HARTFORD       MOSUNNY   73  67  81 CALM      29.93R                  
BRIDGEPORT     MOSUNNY   76  67  73 N3        29.93R                  
DANBURY        MOSUNNY   72  67  84 CALM      29.96R                  
GROTON         PTSUNNY   74  63  68 NE5       29.92R                  
NEW HAVEN      MOSUNNY   77  66  68 N3        29.93R                  
CHESTER        NOT AVBL                                               
MERIDEN        SUNNY     72  64  76 CALM      29.93S                  
WILLIMANTIC    MOSUNNY   69  63  81 CALM      29.94R                  
OXFORD         MOSUNNY   72  63  73 CALM      29.96R                  
$$

MEZ002-015-021-024-NHZ003-005-008-011-012-014-VTZ005-008-291300-
NORTHERN NEW ENGLAND
  
CITY           SKY/WX    TMP DP  RH WIND       PRES   REMARKS
PORTLAND ME    MOSUNNY   77  63  61 W3        29.88S                  
6HR MIN TEMP:  67; 6HR MAX TEMP:  77;                                

BANGOR ME      MOSUNNY   74  63  68 CALM      29.87R                  
CONCORD NH     SUNNY     70  60  70 CALM      29.92R                  
MANCHESTER NH  MOSUNNY   74  59  59 CALM      29.91R                  
NASHUA NH      SUNNY     72  63  73 NW5       29.93R                  
PORTSMOUTH NH  PTSUNNY   74  60  61 W5        29.89R                  
JAFFREY NH     SUNNY     70  58  65 VRB3      29.97R                  
KEENE NH       CLOUDY    61  61 100 CALM      29.96R                  
BURLINGTON VT  MOSUNNY   73  58  59 S10       29.88S                  
MT. WASHINGTON NOT AVBL                                               
$$

NYZ052-076-291300-
EASTERN NEW YORK
  
CITY           SKY/WX    TMP DP  RH WIND       PRES   REMARKS
ALBANY         MOSUNNY   65  60  84 S3        29.94R                  
6HR MIN TEMP:  57; 6HR MAX TEMP:  65;                                

NEW YORK CITY  MOSUNNY   80  67  64 NE7       29.92R                  
6HR MIN TEMP:  78; 6HR MAX TEMP:  82;                                

$$
 
ANZALL-291300-
MARINE OBSERVATIONS
  
STATION/POSITION TIME  TEMP    WIND        PRES    VSBY  WAVE
                       AIR SEA DIR/SP/G                  HT/PER
                 (UTC) (F)     (DEG/KT/KT) (MB)    (MI)  (FT/S)
BOSTON BUOY      NOT AVBL
BUZZARDS BAY     1100          290/  7/  7 1013.8R
NANTUCKET SOUND  NOT AVBL
MASS BAY-STELLWA 1104   71     310/  6/  6 1009.7R  1 7/8  1/ 5
ISLE OF SHOALS   1100   70     290/  8/  8 1011.3R
S OF BLOCK IS    1126      76                N/A           3/ 7
$$

......................KEY.........................
  SKY/WX - SKY CONDITION/PRESENT WEATHER
  TMP    - TEMPERATURE IN FAHRENHEIT
  DWPT   - DEWPOINT IN FAHRENHEIT
  RH     - RELATIVE HUMIDITY IN PERCENT
  WIND   - DIRECTION AND SPEED IN MPH
  PRES   - MEAN SEA LEVEL PRESSURE IN INCHES OF HG
  WCI    - WIND CHILL INDEX
  VSB    - VISIBILITY IN MILES
  HX     - HEAT INDEX
  TC     - TEMPERATURE IN CELSIUS
  VRB    - VARIABLE WIND DIRECTION
  N/A    - NOT AVAILABLE
  
      

Other recent Regional Weather Roundups

Mon Aug 3, 10:04pm

Mon Aug 3, 9:04pm

Mon Aug 3, 8:05pm

Mon Aug 3, 7:04pm

Mon Aug 3, 6:04pm

Mon Aug 3, 5:04pm

Mon Aug 3, 4:05pm

Mon Aug 3, 3:04pm

Mon Aug 3, 2:04pm

Mon Aug 3, 1:04pm

Mon Aug 3, 12:05pm

Mon Aug 3, 11:04am

Mon Aug 3, 10:04am

Mon Aug 3, 9:05am

Mon Aug 3, 8:04am

Mon Aug 3, 7:04am

Mon Aug 3, 6:04am

Mon Aug 3, 5:04am

Mon Aug 3, 4:04am

Mon Aug 3, 3:04am

Mon Aug 3, 2:04am

Mon Aug 3, 1:04am

Mon Aug 3, 12:05am

Sun Aug 2, 11:04pm

Sun Aug 2, 10:04pm

Sun Aug 2, 9:04pm

Sun Aug 2, 8:04pm

Sun Aug 2, 7:04pm

Sun Aug 2, 6:04pm

Sun Aug 2, 5:04pm

Sun Aug 2, 4:05pm

Sun Aug 2, 3:04pm

Sun Aug 2, 2:05pm

Sun Aug 2, 1:04pm

Sun Aug 2, 12:04pm

Sun Aug 2, 11:04am

Sun Aug 2, 10:04am

Sun Aug 2, 9:05am

Sun Aug 2, 8:05am

Sun Aug 2, 7:04am

Sun Aug 2, 6:04am

Sun Aug 2, 5:04am

Sun Aug 2, 4:05am

Sun Aug 2, 3:04am

Sun Aug 2, 2:04am

Sun Aug 2, 1:04am

Sun Aug 2, 12:05am

Sat Aug 1, 11:04pm

Sat Aug 1, 10:04pm

Sat Aug 1, 9:04pm

Sat Aug 1, 8:05pm

Sat Aug 1, 7:04pm

Sat Aug 1, 6:04pm

Sat Aug 1, 5:05pm

Sat Aug 1, 4:05pm

Sat Aug 1, 3:04pm

Sat Aug 1, 2:04pm

Sat Aug 1, 1:04pm

Sat Aug 1, 12:04pm

Sat Aug 1, 11:05am

Sat Aug 1, 10:05am

Sat Aug 1, 9:04am

Sat Aug 1, 8:04am

Sat Aug 1, 7:04am

Sat Aug 1, 6:04am

Sat Aug 1, 5:04am

Sat Aug 1, 4:05am

Sat Aug 1, 3:04am

Sat Aug 1, 2:04am

Sat Aug 1, 1:04am

Sat Aug 1, 12:05am

Fri Jul 31, 11:05pm

Fri Jul 31, 10:04pm

Fri Jul 31, 9:04pm

Fri Jul 31, 8:05pm

Fri Jul 31, 7:05pm

Fri Jul 31, 6:04pm

Fri Jul 31, 5:04pm

Fri Jul 31, 4:05pm

Fri Jul 31, 3:04pm

Fri Jul 31, 2:05pm

Fri Jul 31, 1:04pm

Fri Jul 31, 12:04pm

Fri Jul 31, 11:04am

Fri Jul 31, 10:04am

Fri Jul 31, 9:04am

Fri Jul 31, 8:04am

Fri Jul 31, 7:04am

Fri Jul 31, 6:04am

Fri Jul 31, 5:04am

Fri Jul 31, 4:04am

Fri Jul 31, 3:04am

Fri Jul 31, 2:04am

Fri Jul 31, 1:05am

Fri Jul 31, 12:04am

Thu Jul 30, 11:04pm

Thu Jul 30, 10:04pm

Thu Jul 30, 9:04pm

Thu Jul 30, 8:04pm

Thu Jul 30, 7:05pm

Thu Jul 30, 6:04pm

Thu Jul 30, 5:04pm

Thu Jul 30, 4:05pm

Thu Jul 30, 3:04pm

Thu Jul 30, 2:05pm

Thu Jul 30, 1:04pm

Thu Jul 30, 12:04pm

Thu Jul 30, 11:04am

Thu Jul 30, 10:05am

Thu Jul 30, 9:04am

Thu Jul 30, 8:04am

Thu Jul 30, 7:04am

Thu Jul 30, 6:04am

Thu Jul 30, 5:04am

Thu Jul 30, 4:04am

Thu Jul 30, 3:04am

Thu Jul 30, 2:04am

Thu Jul 30, 1:04am

Thu Jul 30, 12:04am

Wed Jul 29, 11:04pm

Wed Jul 29, 10:04pm

Wed Jul 29, 9:04pm

Wed Jul 29, 8:04pm

Wed Jul 29, 7:05pm

Wed Jul 29, 6:05pm

Wed Jul 29, 5:04pm

Wed Jul 29, 4:04pm

Wed Jul 29, 3:04pm

Wed Jul 29, 2:04pm

Wed Jul 29, 1:05pm

Wed Jul 29, 12:05pm

Wed Jul 29, 11:04am

Wed Jul 29, 10:04am

Wed Jul 29, 9:04am

Wed Jul 29, 7:04am

Wed Jul 29, 6:04am

Wed Jul 29, 5:04am

Wed Jul 29, 4:04am

Wed Jul 29, 3:04am

Wed Jul 29, 2:04am

Wed Jul 29, 1:04am

Wed Jul 29, 12:05am

Tue Jul 28, 11:05pm

Tue Jul 28, 10:05pm

Tue Jul 28, 9:04pm

Tue Jul 28, 8:04pm

Tue Jul 28, 7:04pm

Tue Jul 28, 6:04pm

Tue Jul 28, 5:04pm

Tue Jul 28, 4:05pm

Tue Jul 28, 3:05pm

Tue Jul 28, 2:04pm

Tue Jul 28, 1:05pm

Tue Jul 28, 12:04pm

Tue Jul 28, 11:04am

Tue Jul 28, 10:04am

Tue Jul 28, 9:04am

Tue Jul 28, 8:04am

Tue Jul 28, 7:04am

Tue Jul 28, 6:04am

Tue Jul 28, 5:04am

Tue Jul 28, 4:04am

Tue Jul 28, 3:04am

Tue Jul 28, 2:04am

Tue Jul 28, 1:04am

Tue Jul 28, 12:05am

Mon Jul 27, 11:04pm

Meta data:

ID: 4bc70286-ae3b-4ac9-bd7a-67d8a77064ec
Link: https://api.weather.gov/products/4bc70286-ae3b-4ac9-bd7a-67d8a77064ec